Location: El Castaño
(10.3135°N, 67.5574°W)
Time: 01:20:01
(UTC+00:00)

MAQSAT/ARIANE V - Pass Details

Date: 13 June 2024
Orbit: 242 x 31929 km, 7.4° (Epoch: 14 July)

Event Time Altitude Azimuth Distance (km) Brightness Sun altitude
Rises 15:02:56 0° 260° (W) 14,870 8.8 65.4°
Reaches altitude 10° 15:15:24 10° 259° (W) 16,694 9.2 67.9°
Drops below altitude 10° 21:03:57 10° 271° (W) 30,840 12.1 23.8°
Maximum altitude 23:24:21 61° 197° (SSW) 1,870 4.4 -8.0°
Enters shadow 23:29:15 11° 116° (ESE) 2,299 4.3 -9.1°
